Location: Trebic
(49.2170°N, 15.8830°E)
Time: 08:54:32
(UTC+02:00)

Transit 2A Rocket - Pass Details

Date: 23 July 2019
Orbit: 591 x 913 km, 66.7° (Epoch: 24 August)

Event Time Altitude Azimuth Distance (km) Brightness Sun altitude
Rises 05:57:13 0° 263° (W) 3,476 7.8 5.0°
Reaches altitude 10° 06:00:21 10° 278° (W) 2,498 7.2 5.5°
Maximum altitude 06:04:48 22° 329° (NNW) 1,715 6.8 6.1°
Drops below altitude 10° 06:09:02 10° 20° (NNE) 2,348 8.3 6.8°
Sets 06:11:53 0° 35° (NE) 3,216 9.3 7.2°
